Location: *
(51.1248°S, 108.4023°W)
Time: 01:50:46
(UTC+00:00)

N. Korean satellite - Pass Details

Date: 07 October 2021
Orbit: 450 x 494 km, 97.3° (Epoch: 27 October)

Event Time Altitude Azimuth Distance (km) Brightness Sun altitude
Rises 10:51:13 0° 37° (NE) 2,576 10.3 -15.0°
Reaches altitude 10° 10:53:24 10° 46° (NE) 1,696 9.5 -14.7°
Maximum altitude 10:56:43 34° 111° (ESE) 837 8.5 -14.3°
Drops below altitude 10° 11:00:03 10° 177° (S) 1,695 9.7 -13.8°
Sets 11:02:14 0° 186° (S) 2,576 10.5 -13.5°
